DECAYED

OBJECT C, 60456 (Decayed)

Orbit data source: Space-Track

You're viewing an Uncataloged Satellite

Recently launched and/or uncataloged satellites may have evolving metadata. Metadata may include but not limited to: Owner, Maufacturer, Bus, Motor, and Mission.

OBJECT C, 60456 was a satellite owned by ISRO (IN) in LEO that was launched on Fri, 16 Aug 2024 UTC launched from the Sirharikota (SRI). Unknown objects in Earth's orbit typically refer to objects detected orbiting the Earth but have not yet been identified or cataloged. These objects could be anything from previously untracked satellites, spent rocket stages, debris from satellite collisions, or even natural meteoroids temporarily captured by Earth's gravity. This object's orbit decayed before it could be identified.

Not visible in the next 10 days
Identifier
60456, 2024-147C
Orbit
Decayed
Last TLE update
4 months ago
Origin
Manufacturer
ISRO
Mission
Decayed spacecraft
Bus & Motor
SS-3, Unknown motor
Mass
~400 kg wet, ~400 kg dry
Launch date (UTC)
2024-08-16 (11 months ago)
Launch vehicle
Unknown
Launch site
Sirharikota (SRI)
Object type
Unknown
Shape & HBR
Cyl, 1.4 m
Radar Cross Section
5.969 m², Large (>1 m²)

Expand to show TLE details & history

TLE from 4 months ago
0 OBJECT C
1 60456U 24147C   25071.50043843  .06084490  37777-5  28269-3 0  9998
2 60456  36.9099 350.7329 0007244 321.0864 201.1212 16.43079029 32891
Epoch: 2025-03-12T12:00Z
TLE epoch observation values (Epoch: 2025-03-12T12:00:37.88Z)
Latitude
10.61156°
Longitude
165.82745°
Altitude
160.342 km
Speed
7.811 km/s
True Right ascension
10h 25m 29s
True Declination
10° 32' 38"
Sunlit
Object was in full shadow at epoch
Visualization orbit readout
Visualization observer readout
Orbital elements
Apogee altitude
165.459 km
Perigee altitude
155.986 km
Semi-major axis
6,538.86 km
Eccentricity
0.00072
Inclination
36.9099°
RAAN
350.7329°
Arg. of periapsis
321.0864°
True anomaly
201.09131°
Mean anomaly
201.1212°
Eccentric anomaly
201.10625°
Mean motion
4.10478 °/min
Orbital period
87.7 mins
BSTAR
0.00028269
Loading maneuver chart data...
Loading SW <> Apogee altitude chart data...
Loading historical data...
Loading historical data...
Loading historical data...
Loading historical data...
Loading historical data...
Loading historical data...
Loading historical data...
Other satellites on launch #147 in the year 2024 (2024-08-16 UTC)
|